Year,Month,Day,Hour,Minute,Value (Times are PST for temperature in C)
2015,06,19,00,00,14.90
2015,06,19,00,01,14.90
2015,06,19,00,02,14.90
2015,06,19,00,03,14.90
2015,06,19,00,04,14.90
2015,06,19,00,05,14.90
2015,06,19,00,06,14.90
2015,06,19,00,07,14.90
2015,06,19,00,08,14.90
2015,06,19,00,09,14.90
2015,06,19,00,10,14.90
2015,06,19,00,11,14.90
2015,06,19,00,12,14.90
2015,06,19,00,13,14.90
2015,06,19,00,14,14.90
2015,06,19,00,15,14.90
2015,06,19,00,16,14.80
2015,06,19,00,17,14.80
2015,06,19,00,18,14.80
2015,06,19,00,19,14.80
2015,06,19,00,20,14.80
2015,06,19,00,21,14.80
2015,06,19,00,22,14.80
2015,06,19,00,23,14.80
2015,06,19,00,24,14.80
2015,06,19,00,25,14.80
2015,06,19,00,26,14.80
2015,06,19,00,27,14.80
2015,06,19,00,28,14.80
2015,06,19,00,29,14.80
2015,06,19,00,30,14.80
2015,06,19,00,31,14.80
2015,06,19,00,32,14.80
2015,06,19,00,33,14.80
2015,06,19,00,34,14.80
2015,06,19,00,35,14.80
2015,06,19,00,36,14.80
2015,06,19,00,37,14.80
2015,06,19,00,38,14.80
2015,06,19,00,39,14.80
2015,06,19,00,40,14.80
2015,06,19,00,41,14.80
2015,06,19,00,42,14.80
2015,06,19,00,43,14.80
2015,06,19,00,44,14.80
2015,06,19,00,45,14.80
2015,06,19,00,46,14.80
2015,06,19,00,47,14.80
2015,06,19,00,48,14.80
2015,06,19,00,49,14.80
2015,06,19,00,50,14.80
2015,06,19,00,51,14.80
2015,06,19,00,52,14.80
2015,06,19,00,53,14.80
2015,06,19,00,54,14.80
2015,06,19,00,55,14.80
2015,06,19,00,56,14.80
2015,06,19,00,57,14.80
2015,06,19,00,58,14.80
2015,06,19,00,59,14.80
2015,06,19,01,00,14.80
2015,06,19,01,01,14.80
2015,06,19,01,02,14.80
2015,06,19,01,03,14.80
2015,06,19,01,04,14.80
2015,06,19,01,05,14.80
2015,06,19,01,06,14.80
2015,06,19,01,07,14.80
2015,06,19,01,08,14.80
2015,06,19,01,09,14.80
2015,06,19,01,10,14.80
2015,06,19,01,11,14.80
2015,06,19,01,12,14.80
2015,06,19,01,13,14.80
2015,06,19,01,14,14.80
2015,06,19,01,15,14.80
2015,06,19,01,16,14.80
2015,06,19,01,17,14.80
2015,06,19,01,18,14.80
2015,06,19,01,19,14.80
2015,06,19,01,20,14.80
2015,06,19,01,21,14.80
2015,06,19,01,22,14.80
2015,06,19,01,23,14.80
2015,06,19,01,24,14.80
2015,06,19,01,25,14.80
2015,06,19,01,26,14.80
2015,06,19,01,27,14.80
2015,06,19,01,28,14.80
2015,06,19,01,29,14.80
2015,06,19,01,30,14.80
2015,06,19,01,31,14.80
2015,06,19,01,32,14.80
2015,06,19,01,33,14.80
2015,06,19,01,34,14.80
2015,06,19,01,35,14.80
2015,06,19,01,36,14.80
2015,06,19,01,37,14.80
2015,06,19,01,38,14.80
2015,06,19,01,39,14.80
2015,06,19,01,40,14.80
2015,06,19,01,41,14.80
2015,06,19,01,42,14.80
2015,06,19,01,43,14.80
2015,06,19,01,44,14.80
2015,06,19,01,45,14.80
2015,06,19,01,46,14.80
2015,06,19,01,47,14.80
2015,06,19,01,48,14.80
2015,06,19,01,49,14.80
2015,06,19,01,50,14.80
2015,06,19,01,51,14.80
2015,06,19,01,52,14.80
2015,06,19,01,53,14.80
2015,06,19,01,54,14.80
2015,06,19,01,55,14.80
2015,06,19,01,56,14.80
2015,06,19,01,57,14.80
2015,06,19,01,58,14.80
2015,06,19,01,59,14.80
2015,06,19,02,00,14.80
2015,06,19,02,01,14.80
2015,06,19,02,02,14.70
2015,06,19,02,03,14.70
2015,06,19,02,04,14.70
2015,06,19,02,05,14.70
2015,06,19,02,06,14.70
2015,06,19,02,07,14.80
2015,06,19,02,08,14.70
2015,06,19,02,09,14.70
2015,06,19,02,10,14.70
2015,06,19,02,11,14.80
2015,06,19,02,12,14.80
2015,06,19,02,13,14.80
2015,06,19,02,14,14.80
2015,06,19,02,15,14.80
2015,06,19,02,16,14.80
2015,06,19,02,17,14.80
2015,06,19,02,18,14.80
2015,06,19,02,19,14.80
2015,06,19,02,20,14.80
2015,06,19,02,21,14.70
2015,06,19,02,22,14.70
2015,06,19,02,23,14.70
2015,06,19,02,24,14.70
2015,06,19,02,25,14.70
2015,06,19,02,26,14.70
2015,06,19,02,27,14.70
2015,06,19,02,28,14.70
2015,06,19,02,29,14.70
2015,06,19,02,30,14.70
2015,06,19,02,31,14.70
2015,06,19,02,32,14.70
2015,06,19,02,33,14.70
2015,06,19,02,34,14.70
2015,06,19,02,35,14.70
2015,06,19,02,36,14.70
2015,06,19,02,37,14.70
2015,06,19,02,38,14.70
2015,06,19,02,39,14.70
2015,06,19,02,40,14.70
2015,06,19,02,41,14.70
2015,06,19,02,42,14.70
2015,06,19,02,43,14.70
2015,06,19,02,44,14.70
2015,06,19,02,45,14.70
2015,06,19,02,46,14.70
2015,06,19,02,47,14.70
2015,06,19,02,48,14.70
2015,06,19,02,49,14.70
2015,06,19,02,50,14.70
2015,06,19,02,51,14.70
2015,06,19,02,52,14.70
2015,06,19,02,53,14.70
2015,06,19,02,54,14.70
2015,06,19,02,55,14.70
2015,06,19,02,56,14.60
2015,06,19,02,57,14.60
2015,06,19,02,58,14.60
2015,06,19,02,59,14.60
2015,06,19,03,00,14.60
2015,06,19,03,01,14.60
2015,06,19,03,02,14.60
2015,06,19,03,03,14.50
2015,06,19,03,04,14.50
2015,06,19,03,05,14.50
2015,06,19,03,06,14.50
2015,06,19,03,07,14.50
2015,06,19,03,08,14.50
2015,06,19,03,09,14.50
2015,06,19,03,10,14.50
2015,06,19,03,11,14.50
2015,06,19,03,12,14.50
2015,06,19,03,13,14.50
2015,06,19,03,14,14.50
2015,06,19,03,15,14.50
2015,06,19,03,16,14.40
2015,06,19,03,17,14.40
2015,06,19,03,18,14.50
2015,06,19,03,19,14.50
2015,06,19,03,20,14.40
2015,06,19,03,21,14.40
2015,06,19,03,22,14.40
2015,06,19,03,23,14.40
2015,06,19,03,24,14.40
2015,06,19,03,25,14.40
2015,06,19,03,26,14.40
2015,06,19,03,27,14.40
2015,06,19,03,28,14.40
2015,06,19,03,29,14.40
2015,06,19,03,30,14.40
2015,06,19,03,31,14.40
2015,06,19,03,32,14.40
2015,06,19,03,33,14.40
2015,06,19,03,34,14.40
2015,06,19,03,35,14.40
2015,06,19,03,36,14.40
2015,06,19,03,37,14.40
2015,06,19,03,38,14.40
2015,06,19,03,39,14.40
2015,06,19,08,27,15.10
2015,06,19,08,28,15.10
2015,06,19,08,29,15.10
2015,06,19,08,30,15.10
2015,06,19,08,31,15.10
2015,06,19,08,32,15.10
2015,06,19,08,33,15.10
2015,06,19,08,34,15.20
2015,06,19,08,35,15.20
2015,06,19,08,36,15.20
2015,06,19,08,37,15.30
2015,06,19,08,38,15.30
2015,06,19,08,39,15.30
2015,06,19,08,40,15.30
2015,06,19,08,41,15.40
2015,06,19,08,42,15.40
2015,06,19,08,43,15.40
2015,06,19,08,44,15.50
2015,06,19,08,45,15.50
2015,06,19,08,46,15.50
2015,06,19,08,47,15.50
2015,06,19,08,48,15.50
2015,06,19,08,49,15.50
2015,06,19,08,50,15.50
2015,06,19,08,51,15.50
2015,06,19,08,52,15.60
2015,06,19,08,53,15.60
2015,06,19,08,54,15.70
2015,06,19,08,55,15.70
2015,06,19,08,56,15.70
2015,06,19,08,57,15.70
2015,06,19,08,58,15.70
2015,06,19,08,59,15.70
2015,06,19,09,00,15.70
2015,06,19,09,01,15.80
2015,06,19,09,02,15.80
2015,06,19,09,03,15.80
2015,06,19,09,04,15.80
2015,06,19,09,05,15.70
2015,06,19,09,06,15.70
2015,06,19,09,07,15.80
2015,06,19,09,08,15.80
2015,06,19,09,09,15.80
2015,06,19,09,10,15.70
2015,06,19,09,11,15.70
2015,06,19,09,12,15.60
2015,06,19,09,13,15.60
2015,06,19,09,14,15.50
2015,06,19,09,15,15.50
2015,06,19,09,16,15.40
2015,06,19,09,17,15.40
2015,06,19,09,18,15.30
2015,06,19,09,19,15.30
2015,06,19,09,20,15.40
2015,06,19,09,21,15.40
2015,06,19,09,22,15.40
2015,06,19,09,23,15.50
2015,06,19,09,24,15.50
2015,06,19,09,25,15.60
2015,06,19,09,26,15.60
2015,06,19,09,27,15.60
2015,06,19,09,28,15.50
2015,06,19,09,29,15.40
2015,06,19,09,30,15.40
2015,06,19,09,31,15.40
2015,06,19,09,32,15.40
2015,06,19,09,33,15.40
2015,06,19,09,34,15.40
2015,06,19,09,35,15.40
2015,06,19,09,36,15.40
2015,06,19,09,37,15.40
2015,06,19,09,38,15.30
2015,06,19,09,39,15.30
2015,06,19,09,40,15.30
2015,06,19,09,41,15.30
2015,06,19,09,42,15.30
2015,06,19,09,43,15.30
2015,06,19,09,44,15.30
2015,06,19,09,45,15.40
2015,06,19,09,46,15.40
2015,06,19,09,47,15.30
2015,06,19,09,48,15.30
2015,06,19,09,49,15.30
2015,06,19,09,50,15.30
2015,06,19,09,51,15.30
2015,06,19,09,52,15.40
2015,06,19,09,53,15.40
2015,06,19,09,54,15.40
2015,06,19,09,55,15.40
2015,06,19,09,56,15.40
2015,06,19,09,57,15.40
2015,06,19,09,58,15.50
2015,06,19,09,59,15.50
2015,06,19,10,00,15.50
2015,06,19,10,01,15.50
2015,06,19,10,02,15.60
2015,06,19,10,03,15.70
2015,06,19,10,04,15.80
2015,06,19,10,05,15.80
2015,06,19,10,06,15.80
2015,06,19,10,07,15.90
2015,06,19,10,08,16.10
2015,06,19,10,09,16.10
2015,06,19,10,10,16.10
2015,06,19,10,11,16.10
2015,06,19,10,12,16.10
2015,06,19,10,13,16.10
2015,06,19,10,14,16.10
2015,06,19,10,15,16.10
2015,06,19,10,16,16.20
2015,06,19,10,17,16.30
2015,06,19,10,18,16.30
2015,06,19,10,19,16.40
2015,06,19,10,20,16.40
2015,06,19,10,21,16.40
2015,06,19,10,22,16.50
2015,06,19,10,23,16.60
2015,06,19,10,24,16.70
2015,06,19,10,25,16.70
2015,06,19,10,26,16.80
2015,06,19,10,27,16.80
2015,06,19,10,28,16.80
2015,06,19,10,29,16.90
2015,06,19,10,30,17.00
2015,06,19,10,31,17.00
2015,06,19,10,32,17.00
2015,06,19,10,33,17.00
2015,06,19,10,34,17.00
2015,06,19,10,35,17.10
2015,06,19,10,36,17.00
2015,06,19,10,37,16.90
2015,06,19,10,38,16.90
2015,06,19,10,39,16.90
2015,06,19,10,40,16.90
2015,06,19,10,41,16.90
2015,06,19,10,42,16.90
2015,06,19,10,43,16.90
2015,06,19,10,44,16.90
2015,06,19,10,45,17.00
2015,06,19,10,46,17.00
2015,06,19,10,47,17.00
2015,06,19,10,48,16.80
2015,06,19,10,49,16.70
2015,06,19,10,50,16.60
2015,06,19,10,51,16.50
2015,06,19,10,52,16.40
2015,06,19,10,53,16.40
2015,06,19,10,54,16.40
2015,06,19,10,55,16.40
2015,06,19,10,56,16.40
2015,06,19,10,57,16.40
2015,06,19,10,58,16.40
2015,06,19,10,59,16.40
2015,06,19,11,00,16.40
2015,06,19,11,01,16.40
2015,06,19,11,02,16.30
2015,06,19,11,03,16.30
2015,06,19,11,04,16.40
2015,06,19,11,05,16.40
2015,06,19,11,06,16.50
2015,06,19,11,07,16.60
2015,06,19,11,08,16.70
2015,06,19,11,09,16.60
2015,06,19,11,10,16.60
2015,06,19,11,11,16.70
2015,06,19,11,12,16.70
2015,06,19,11,13,16.70
2015,06,19,11,14,16.60
2015,06,19,11,15,16.60
2015,06,19,11,16,16.70
2015,06,19,11,17,16.70
2015,06,19,11,18,16.80
2015,06,19,11,19,16.90
2015,06,19,11,20,16.90
2015,06,19,11,21,16.80
2015,06,19,11,22,16.90
2015,06,19,11,23,16.90
2015,06,19,11,24,16.90
2015,06,19,11,25,16.90
2015,06,19,11,26,16.90
2015,06,19,11,27,17.00
2015,06,19,11,28,17.00
2015,06,19,11,29,17.00
2015,06,19,11,30,17.00
2015,06,19,11,31,17.10
2015,06,19,11,32,17.10
2015,06,19,11,33,17.10
2015,06,19,11,34,17.20
2015,06,19,11,35,17.30
2015,06,19,11,36,17.40
2015,06,19,11,37,17.50
2015,06,19,11,38,17.50
2015,06,19,11,39,17.60
2015,06,19,11,40,17.60
2015,06,19,11,41,17.60
2015,06,19,11,42,17.40
2015,06,19,11,43,17.30
2015,06,19,11,44,17.30
2015,06,19,11,45,17.30
2015,06,19,11,46,17.30
2015,06,19,11,47,17.30
2015,06,19,11,48,17.40
2015,06,19,11,49,17.40
2015,06,19,11,50,17.50
2015,06,19,11,51,17.60
2015,06,19,11,52,17.60
2015,06,19,11,53,17.80
2015,06,19,11,54,17.70
2015,06,19,11,55,17.80
2015,06,19,11,56,17.90
2015,06,19,11,57,18.00
2015,06,19,11,58,18.10
2015,06,19,11,59,18.10
2015,06,19,12,00,18.00
2015,06,19,12,01,17.80
2015,06,19,12,02,17.80
2015,06,19,12,03,17.80
2015,06,19,12,04,17.70
2015,06,19,12,05,17.70
2015,06,19,12,06,17.70
2015,06,19,12,07,17.70
2015,06,19,12,08,17.70
2015,06,19,12,09,17.70
2015,06,19,12,10,17.80
2015,06,19,12,11,17.80
2015,06,19,12,12,17.80
2015,06,19,12,13,17.80
2015,06,19,12,14,17.90
2015,06,19,12,15,17.90
2015,06,19,12,16,17.90
2015,06,19,12,17,17.90
2015,06,19,12,18,17.80
2015,06,19,12,19,17.80
2015,06,19,12,20,17.80
2015,06,19,12,21,17.80
2015,06,19,12,22,17.80
2015,06,19,12,23,17.90
2015,06,19,12,24,18.00
2015,06,19,12,25,18.10
2015,06,19,12,26,18.10
2015,06,19,12,27,18.10
2015,06,19,12,28,18.20
2015,06,19,12,29,18.30
2015,06,19,12,30,18.30
2015,06,19,12,31,18.40
2015,06,19,12,32,18.50
2015,06,19,12,33,18.60
2015,06,19,12,34,18.60
2015,06,19,12,35,18.50
2015,06,19,12,36,18.50
2015,06,19,12,37,18.40
2015,06,19,12,38,18.30
2015,06,19,12,39,18.30
2015,06,19,12,40,18.40
2015,06,19,12,41,18.50
2015,06,19,12,42,18.50
2015,06,19,12,43,18.50
2015,06,19,12,44,18.50
2015,06,19,12,45,18.40
2015,06,19,12,46,18.40
2015,06,19,12,47,18.50
2015,06,19,12,48,18.60
2015,06,19,12,49,18.60
2015,06,19,12,50,18.70
2015,06,19,12,51,18.70
2015,06,19,12,52,18.80
2015,06,19,12,53,18.80
2015,06,19,12,54,18.80
2015,06,19,12,55,18.80
2015,06,19,12,56,18.80
2015,06,19,12,57,18.90
2015,06,19,12,58,18.90
2015,06,19,12,59,18.90
2015,06,19,13,00,18.90
2015,06,19,13,01,18.80
2015,06,19,13,02,18.80
2015,06,19,13,03,18.80
2015,06,19,13,04,18.80
2015,06,19,13,05,18.80
2015,06,19,13,06,18.90
2015,06,19,13,07,18.90
2015,06,19,13,08,18.80
2015,06,19,13,09,18.80
2015,06,19,13,10,18.80
2015,06,19,13,11,18.70
2015,06,19,13,12,18.70
2015,06,19,13,13,18.80
2015,06,19,13,14,18.80
2015,06,19,13,15,18.90
2015,06,19,13,16,18.90
2015,06,19,13,17,18.90
2015,06,19,13,18,18.90
2015,06,19,13,19,19.10
2015,06,19,13,20,19.10
2015,06,19,13,21,19.10
2015,06,19,13,22,19.10
2015,06,19,13,23,19.20
2015,06,19,13,24,19.20
2015,06,19,13,25,19.20
2015,06,19,13,26,19.20
2015,06,19,13,27,19.30
2015,06,19,13,28,19.40
2015,06,19,13,29,19.40
2015,06,19,13,30,19.30
2015,06,19,13,31,19.30
2015,06,19,13,32,19.40
2015,06,19,13,33,19.50
2015,06,19,13,34,19.50
2015,06,19,13,35,19.40
2015,06,19,13,36,19.40
2015,06,19,13,37,19.50
2015,06,19,13,38,19.50
2015,06,19,13,39,19.50
2015,06,19,13,40,19.50
2015,06,19,13,41,19.60
2015,06,19,13,42,19.70
2015,06,19,13,43,19.70
2015,06,19,13,44,19.80
2015,06,19,13,45,19.80
2015,06,19,13,46,19.80
2015,06,19,13,47,19.60
2015,06,19,13,48,19.60
2015,06,19,13,49,19.70
2015,06,19,13,50,19.80
2015,06,19,13,51,19.80
2015,06,19,13,52,19.80
2015,06,19,13,53,19.90
2015,06,19,13,54,20.10
2015,06,19,13,55,20.20
2015,06,19,13,56,20.20
2015,06,19,13,57,20.10
2015,06,19,13,58,20.00
2015,06,19,13,59,19.90
2015,06,19,14,00,20.00
2015,06,19,14,01,19.90
2015,06,19,14,02,19.80
2015,06,19,14,03,19.80
2015,06,19,14,04,19.80
2015,06,19,14,05,19.90
2015,06,19,14,06,19.90
2015,06,19,14,07,19.90
2015,06,19,14,08,19.80
2015,06,19,14,09,19.80
2015,06,19,14,10,19.70
2015,06,19,14,11,19.70
2015,06,19,14,12,19.70
2015,06,19,14,13,19.80
2015,06,19,14,14,19.80
2015,06,19,14,15,19.90
2015,06,19,14,16,19.90
2015,06,19,14,17,19.90
2015,06,19,14,18,19.90
2015,06,19,14,19,19.90
2015,06,19,14,20,19.90
2015,06,19,14,21,19.90
2015,06,19,14,22,19.90
2015,06,19,14,23,19.90
2015,06,19,14,24,19.90
2015,06,19,14,25,19.90
2015,06,19,14,26,19.90
2015,06,19,14,27,19.90
2015,06,19,14,28,20.00
2015,06,19,14,29,20.20
2015,06,19,14,30,20.20
2015,06,19,14,31,20.20
2015,06,19,14,32,20.20
2015,06,19,14,33,20.30
2015,06,19,14,34,20.40
2015,06,19,14,35,20.50
2015,06,19,14,36,20.40
2015,06,19,14,37,20.40
2015,06,19,14,38,20.40
2015,06,19,14,39,20.30
2015,06,19,14,40,20.30
2015,06,19,14,41,20.20
2015,06,19,14,42,20.20
2015,06,19,14,43,20.30
2015,06,19,14,44,20.40
2015,06,19,14,45,20.40
2015,06,19,14,46,20.40
2015,06,19,14,47,20.30
2015,06,19,14,48,20.20
2015,06,19,14,49,20.20
2015,06,19,14,50,20.20
2015,06,19,14,51,20.20
2015,06,19,14,52,20.20
2015,06,19,14,53,20.20
2015,06,19,14,54,20.10
2015,06,19,14,55,20.10
2015,06,19,14,56,20.10
2015,06,19,14,57,20.10
2015,06,19,14,58,20.20
2015,06,19,14,59,20.20
2015,06,19,15,00,20.20
2015,06,19,15,01,20.40
2015,06,19,15,02,20.40
2015,06,19,15,03,20.50
2015,06,19,15,04,20.50
2015,06,19,15,05,20.60
2015,06,19,15,06,20.60
2015,06,19,15,07,20.50
2015,06,19,15,08,20.50
2015,06,19,15,09,20.50
2015,06,19,15,10,20.60
2015,06,19,15,11,20.70
2015,06,19,15,12,20.70
2015,06,19,15,13,20.60
2015,06,19,15,14,20.60
2015,06,19,15,15,20.70
2015,06,19,15,16,20.80
2015,06,19,15,17,20.80
2015,06,19,15,18,20.90
2015,06,19,15,19,21.00
2015,06,19,15,20,21.00
2015,06,19,15,21,21.00
2015,06,19,15,22,21.00
2015,06,19,15,23,21.10
2015,06,19,15,24,21.10
2015,06,19,15,25,21.10
2015,06,19,15,26,21.10
2015,06,19,15,27,21.10
2015,06,19,15,28,21.00
2015,06,19,15,29,20.90
2015,06,19,15,30,20.90
2015,06,19,15,31,20.90
2015,06,19,15,32,21.00
2015,06,19,15,33,21.10
2015,06,19,15,34,21.10
2015,06,19,15,35,21.10
2015,06,19,15,36,21.00
2015,06,19,15,37,20.90
2015,06,19,15,38,21.00
2015,06,19,15,39,21.00
2015,06,19,15,40,20.90
2015,06,19,15,41,20.90
2015,06,19,15,42,20.80
2015,06,19,15,43,20.80
2015,06,19,15,44,20.70
2015,06,19,15,45,20.80
2015,06,19,15,46,20.80
2015,06,19,15,47,20.80
2015,06,19,15,48,20.80
2015,06,19,15,49,20.80
2015,06,19,15,50,20.70
2015,06,19,15,51,20.70
2015,06,19,15,52,20.80
2015,06,19,15,53,20.80
2015,06,19,15,54,21.00
2015,06,19,15,55,21.10
2015,06,19,15,56,21.30
2015,06,19,15,57,21.30
2015,06,19,15,58,21.20
2015,06,19,15,59,21.10
2015,06,19,16,00,21.00
2015,06,19,16,01,21.00
2015,06,19,16,02,21.00
2015,06,19,16,03,20.90
2015,06,19,16,04,20.90
2015,06,19,16,05,21.00
2015,06,19,16,06,21.00
2015,06,19,16,07,21.00
2015,06,19,16,08,20.90
2015,06,19,16,09,20.80
2015,06,19,16,10,20.80
2015,06,19,16,11,20.80
2015,06,19,16,12,20.70
2015,06,19,16,13,20.70
2015,06,19,16,14,20.70
2015,06,19,16,15,20.80
2015,06,19,16,16,20.80
2015,06,19,16,17,21.00
2015,06,19,16,18,21.00
2015,06,19,16,19,21.00
2015,06,19,16,20,21.10
2015,06,19,16,21,21.10
2015,06,19,16,22,21.20
2015,06,19,16,23,21.30
2015,06,19,16,24,21.30
2015,06,19,16,25,21.40
2015,06,19,16,26,21.60
2015,06,19,16,27,21.60
2015,06,19,16,28,21.60
2015,06,19,16,29,21.60
2015,06,19,16,30,21.60
2015,06,19,16,31,21.40
2015,06,19,16,32,21.30
2015,06,19,16,33,21.30
2015,06,19,16,34,21.30
2015,06,19,16,35,21.30
2015,06,19,16,36,21.30
2015,06,19,16,37,21.40
2015,06,19,16,38,21.40
2015,06,19,16,39,21.60
2015,06,19,16,40,21.60
2015,06,19,16,41,21.60
2015,06,19,16,42,21.40
2015,06,19,16,43,21.30
2015,06,19,16,44,21.30
2015,06,19,16,45,21.30
2015,06,19,16,46,21.20
2015,06,19,16,47,21.10
2015,06,19,16,48,21.10
2015,06,19,16,49,21.10
2015,06,19,16,50,21.20
2015,06,19,16,51,21.30
2015,06,19,16,52,21.20
2015,06,19,16,53,21.20
2015,06,19,16,54,21.20
2015,06,19,16,55,21.10
2015,06,19,16,56,21.10
2015,06,19,16,57,21.10
2015,06,19,16,58,21.10
2015,06,19,16,59,21.00
2015,06,19,17,00,20.90
2015,06,19,17,01,20.80
2015,06,19,17,02,20.90
2015,06,19,17,03,20.90
2015,06,19,17,04,20.90
2015,06,19,17,05,20.90
2015,06,19,17,06,21.00
2015,06,19,17,07,21.00
2015,06,19,17,08,21.00
2015,06,19,17,09,21.10
2015,06,19,17,10,21.10
2015,06,19,17,11,21.20
2015,06,19,17,12,21.20
2015,06,19,17,13,21.20
2015,06,19,17,14,21.20
2015,06,19,17,15,21.20
2015,06,19,17,16,21.20
2015,06,19,17,17,21.30
2015,06,19,17,18,21.20
2015,06,19,17,19,21.30
2015,06,19,17,20,21.30
2015,06,19,17,21,21.30
2015,06,19,17,22,21.30
2015,06,19,17,23,21.20
2015,06,19,17,24,21.20
2015,06,19,17,25,21.20
2015,06,19,17,26,21.30
2015,06,19,17,27,21.30
2015,06,19,17,28,21.40
2015,06,19,17,29,21.50
2015,06,19,17,30,21.50
2015,06,19,17,31,21.40
2015,06,19,17,32,21.40
2015,06,19,17,33,21.30
2015,06,19,17,34,21.30
2015,06,19,17,35,21.20
2015,06,19,17,36,21.00
2015,06,19,17,37,20.90
2015,06,19,17,38,20.80
2015,06,19,17,39,20.70
2015,06,19,17,40,20.70
2015,06,19,17,41,20.80
2015,06,19,17,42,20.80
2015,06,19,17,43,20.70
2015,06,19,17,44,20.60
2015,06,19,17,45,20.60
2015,06,19,17,46,20.50
2015,06,19,17,47,20.40
2015,06,19,17,48,20.30
2015,06,19,17,49,20.20
2015,06,19,17,50,20.30
2015,06,19,17,51,20.30
2015,06,19,17,52,20.30
2015,06,19,17,53,20.30
2015,06,19,17,54,20.30
2015,06,19,17,55,20.30
2015,06,19,17,56,20.40
2015,06,19,17,57,20.30
2015,06,19,17,58,20.30
2015,06,19,17,59,20.30
2015,06,19,18,00,20.20
2015,06,19,18,01,20.20
2015,06,19,18,02,20.20
2015,06,19,18,03,20.20
2015,06,19,18,04,20.30
2015,06,19,18,05,20.40
2015,06,19,18,06,20.40
2015,06,19,18,07,20.30
2015,06,19,18,08,20.30
2015,06,19,18,09,20.30
2015,06,19,18,10,20.20
2015,06,19,18,11,20.20
2015,06,19,18,12,20.20
2015,06,19,18,13,20.30
2015,06,19,18,14,20.20
2015,06,19,18,15,20.30
2015,06,19,18,16,20.40
2015,06,19,18,17,20.40
2015,06,19,18,18,20.40
2015,06,19,18,19,20.40
2015,06,19,18,20,20.40
2015,06,19,18,21,20.40
2015,06,19,18,22,20.40
2015,06,19,18,23,20.50
2015,06,19,18,24,20.50
2015,06,19,18,25,20.50
2015,06,19,18,26,20.50
2015,06,19,18,27,20.60
2015,06,19,18,28,20.50
2015,06,19,18,29,20.50
2015,06,19,18,30,20.50
2015,06,19,18,31,20.50
2015,06,19,18,32,20.50
2015,06,19,18,33,20.60
2015,06,19,18,34,20.60
2015,06,19,18,35,20.60
2015,06,19,18,36,20.50
2015,06,19,18,37,20.40
2015,06,19,18,38,20.40
2015,06,19,18,39,20.30
2015,06,19,18,40,20.30
2015,06,19,18,41,20.20
2015,06,19,18,42,20.20
2015,06,19,18,43,20.20
2015,06,19,18,44,20.20
2015,06,19,18,45,20.20
2015,06,19,18,46,20.30
2015,06,19,18,47,20.30
2015,06,19,18,48,20.30
2015,06,19,18,49,20.30
2015,06,19,18,50,20.30
2015,06,19,18,51,20.30
2015,06,19,18,52,20.30
2015,06,19,18,53,20.30
2015,06,19,18,54,20.30
2015,06,19,18,55,20.30
2015,06,19,18,56,20.20
2015,06,19,18,57,20.20
2015,06,19,18,58,20.20
2015,06,19,18,59,20.20
2015,06,19,19,00,20.30
2015,06,19,19,01,20.40
2015,06,19,19,02,20.50
2015,06,19,19,03,20.50
2015,06,19,19,04,20.50
2015,06,19,19,05,20.40
2015,06,19,19,06,20.30
2015,06,19,19,07,20.30
2015,06,19,19,08,20.30
2015,06,19,19,09,20.30
2015,06,19,19,10,20.30
2015,06,19,19,11,20.40
2015,06,19,19,12,20.40
2015,06,19,19,13,20.30
2015,06,19,19,14,20.30
2015,06,19,19,15,20.20
2015,06,19,19,16,20.20
2015,06,19,19,17,20.20
2015,06,19,19,18,20.20
2015,06,19,19,19,20.20
2015,06,19,19,20,20.20
2015,06,19,19,21,20.10
2015,06,19,19,22,20.10
2015,06,19,19,23,20.10
2015,06,19,19,24,20.10
2015,06,19,19,25,19.90
2015,06,19,19,26,19.90
2015,06,19,19,27,19.90
2015,06,19,19,28,19.90
2015,06,19,19,29,19.90
2015,06,19,19,30,19.90
2015,06,19,19,31,20.00
2015,06,19,19,32,20.10
2015,06,19,19,33,20.10
2015,06,19,19,34,20.10
2015,06,19,19,35,20.10
2015,06,19,19,36,20.10
2015,06,19,19,37,19.90
2015,06,19,19,38,19.90
2015,06,19,19,39,19.90
2015,06,19,19,40,19.90
2015,06,19,19,41,19.90
2015,06,19,19,42,19.90
2015,06,19,19,43,19.90
2015,06,19,19,44,19.80
2015,06,19,19,45,19.80
2015,06,19,19,46,19.80
2015,06,19,19,47,19.80
2015,06,19,19,48,19.80
2015,06,19,19,49,19.80
2015,06,19,19,50,19.70
2015,06,19,19,51,19.70
2015,06,19,19,52,19.60
2015,06,19,19,53,19.60
2015,06,19,19,54,19.60
2015,06,19,19,55,19.60
2015,06,19,19,56,19.60
2015,06,19,19,57,19.60
2015,06,19,19,58,19.70
2015,06,19,19,59,19.60
2015,06,19,20,00,19.60
2015,06,19,20,01,19.50
2015,06,19,20,02,19.40
2015,06,19,20,03,19.40
2015,06,19,20,04,19.30
2015,06,19,20,05,19.30
2015,06,19,20,06,19.20
2015,06,19,20,07,19.20
2015,06,19,20,08,19.10
2015,06,19,20,09,19.10
2015,06,19,20,10,19.10
2015,06,19,20,11,19.00
2015,06,19,20,12,18.90
2015,06,19,20,13,18.90
2015,06,19,20,14,18.80
2015,06,19,20,15,18.80
2015,06,19,20,16,18.80
2015,06,19,20,17,18.80
2015,06,19,20,18,18.80
2015,06,19,20,19,18.60
2015,06,19,20,20,18.60
2015,06,19,20,21,18.60
2015,06,19,20,22,18.60
2015,06,19,20,23,18.60
2015,06,19,20,24,18.50
2015,06,19,20,25,18.60
2015,06,19,20,26,18.60
2015,06,19,20,27,18.60
2015,06,19,20,28,18.60
2015,06,19,20,29,18.60
2015,06,19,20,30,18.50
2015,06,19,20,31,18.50
2015,06,19,20,32,18.40
2015,06,19,20,33,18.40
2015,06,19,20,34,18.40
2015,06,19,20,35,18.40
2015,06,19,20,36,18.40
2015,06,19,20,37,18.40
2015,06,19,20,38,18.30
2015,06,19,20,39,18.30
2015,06,19,20,40,18.30
2015,06,19,20,41,18.20
2015,06,19,20,42,18.20
2015,06,19,20,43,18.20
2015,06,19,20,44,18.20
2015,06,19,20,45,18.20
2015,06,19,20,46,18.20
2015,06,19,20,47,18.10
2015,06,19,20,48,18.10
2015,06,19,20,49,18.10
2015,06,19,20,50,18.00
2015,06,19,20,51,17.90
2015,06,19,20,52,17.90
2015,06,19,20,53,17.90
2015,06,19,20,54,17.80
2015,06,19,20,55,17.80
2015,06,19,20,56,17.70
2015,06,19,20,57,17.70
2015,06,19,20,58,17.70
2015,06,19,20,59,17.60
2015,06,19,21,00,17.60
2015,06,19,21,01,17.60
2015,06,19,21,02,17.50
2015,06,19,21,03,17.50
2015,06,19,21,04,17.40
2015,06,19,21,05,17.30
2015,06,19,21,06,17.30
2015,06,19,21,07,17.30
2015,06,19,21,08,17.10
2015,06,19,21,09,17.00
2015,06,19,21,10,17.00
2015,06,19,21,11,16.90
2015,06,19,21,12,16.80
2015,06,19,21,13,16.70
2015,06,19,21,14,16.60
2015,06,19,21,15,16.50
2015,06,19,21,16,16.40
2015,06,19,21,17,16.40
2015,06,19,21,18,16.40
2015,06,19,21,19,16.30
2015,06,19,21,20,16.30
2015,06,19,21,21,16.20
2015,06,19,21,22,16.20
2015,06,19,21,23,16.10
2015,06,19,21,24,16.10
2015,06,19,21,25,16.00
2015,06,19,21,26,15.90
2015,06,19,21,27,15.90
2015,06,19,21,28,15.80
2015,06,19,21,29,15.80
2015,06,19,21,30,15.80
2015,06,19,21,31,15.80
2015,06,19,21,32,15.70
2015,06,19,21,33,15.70
2015,06,19,21,34,15.70
2015,06,19,21,35,15.60
2015,06,19,21,36,15.60
2015,06,19,21,37,15.60
2015,06,19,21,38,15.60
2015,06,19,21,39,15.50
2015,06,19,21,40,15.50
2015,06,19,21,41,15.50
2015,06,19,21,42,15.50
2015,06,19,21,43,15.50
2015,06,19,21,44,15.50
2015,06,19,21,45,15.50
2015,06,19,21,46,15.40
2015,06,19,21,47,15.40
2015,06,19,21,48,15.40
2015,06,19,21,49,15.30
2015,06,19,21,50,15.30
2015,06,19,21,51,15.30
2015,06,19,21,52,15.30
2015,06,19,21,53,15.30
2015,06,19,21,54,15.30
2015,06,19,21,55,15.30
2015,06,19,21,56,15.30
2015,06,19,21,57,15.20
2015,06,19,21,58,15.20
2015,06,19,21,59,15.10
2015,06,19,22,00,15.10
2015,06,19,22,01,15.10
2015,06,19,22,02,15.10
2015,06,19,22,03,15.00
2015,06,19,22,04,15.00
2015,06,19,22,05,15.00
2015,06,19,22,06,15.00